Theta_e
283 285 285 285 285 286 286 287 287 288 287 288 289 288 288 287 288 288 288 288 289 291 292 293 295 297 302 311 318 327 325 324 321 320 319 318 318 317
283 283 284 284 285 286 285 285 286 287 288 287 287 287 286 286 285 286 286 288 289 290 292 294 294 296 298 306 314 317 326 325 323 321 320 319 318 318
282 282 283 284 285 284 285 285 284 285 286 285 284 284 283 283 284 284 286 287 288 289 290 292 292 295 298 301 310 316 324 325 325 323 320 319 318 318
281 282 283 284 285 284 284 284 284 282 283 282 281 281 281 282 283 284 285 286 286 287 289 290 290 293 295 302 306 313 320 326 324 325 322 320 319 318
281 282 283 284 283 283 284 283 282 281 280 280 280 281 281 282 282 282 284 284 285 286 287 288 288 291 298 301 306 310 319 323 324 325 324 321 319 318
280 281 281 281 282 283 283 282 280 279 279 280 280 281 281 280 281 282 281 282 284 285 285 286 289 295 300 307 308 310 316 321 322 322 326 324 322 320
280 280 279 280 281 282 282 280 280 279 279 279 280 280 280 280 280 280 281 282 283 285 286 287 288 288 293 302 314 312 315 319 320 318 325 325 324 322
279 278 278 279 279 281 280 279 279 279 279 279 279 279 280 279 279 280 281 282 284 285 285 285 286 287 290 296 309 314 316 319 319 320 325 325 326 326
277 277 277 277 278 278 278 278 279 278 279 279 279 279 279 279 280 280 282 283 283 284 284 285 286 287 290 293 302 313 313 319 321 322 322 324 325 324
276 276 276 277 277 277 278 278 278 278 279 279 278 279 279 279 280 280 281 282 282 284 284 285 286 288 290 294 301 309 314 315 319 320 319 321 323 324
276 275 276 276 276 277 279 278 278 278 278 277 278 277 278 278 279 280 280 281 282 283 283 284 288 291 293 297 303 312 316 316 317 323 324 320 320 321
275 275 275 275 277 278 277 277 277 277 276 276 276 276 276 277 278 278 279 280 281 282 285 286 286 289 298 305 306 313 315 317 320 321 322 320 320 316
274 274 275 276 277 276 276 275 276 276 275 275 275 275 276 276 277 277 278 279 280 281 283 284 287 288 289 296 303 311 313 311 313 313 317 318 316 315
274 275 275 276 275 274 274 275 275 274 274 274 274 274 275 276 276 277 277 278 279 282 283 285 286 287 287 290 296 301 306 309 311 310 311 312 314 315
274 274 274 274 273 273 273 273 273 273 273 273 273 274 274 275 275 276 277 278 280 281 283 284 285 287 287 289 294 296 299 302 307 307 308 309 306 305
274 272 273 272 272 272 272 272 272 272 272 273 273 273 273 273 274 275 276 278 279 281 282 284 285 286 287 289 293 298 299 298 300 302 304 305 305 307
272 272 271 271 271 271 271 271 271 271 271 272 272 272 272 272 273 274 275 277 279 280 282 283 285 286 288 289 294 298 296 295 298 299 300 296 299 303
271 271 270 270 270 271 270 270 270 270 271 271 271 271 271 271 272 273 274 276 277 279 281 282 284 285 287 292 290 290 294 294 295 297 298 295 293 298
271 270 270 270 270 270 270 269 269 269 270 270 270 269 270 270 271 272 273 275 276 278 280 282 283 284 287 288 288 289 290 293 294 293 295 295 291 293
270 270 269 269 269 269 269 269 268 268 269 269 268 268 269 269 270 271 272 274 276 277 279 280 282 283 285 287 287 288 290 291 293 291 290 291 289 291
269 269 268 268 268 268 269 268 268 268 268 267 267 267 268 268 269 270 271 273 275 277 278 279 280 282 286 288 289 288 286 290 291 291 290 291 290 290
269 268 268 267 267 267 268 267 267 268 267 267 267 267 267 267 268 269 270 273 275 276 276 278 279 282 285 287 287 288 287 287 288 289 291 293 293 292
268 268 267 266 266 267 267 266 266 267 266 266 266 266 266 267 267 269 270 272 274 274 275 277 279 281 283 286 287 288 287 287 286 285 286 289 292 294
Wind_Speed
23 19 19 19 20 20 22 21 18 15 17 27 30 34 35 37 35 40 37 40 42 42 38 40 38 34 30 41 24 68 62 63 61 59 56 55 54 52
20 20 20 21 21 20 22 22 22 24 16 29 32 37 40 40 39 40 41 38 37 41 38 37 40 39 34 33 37 33 68 66 64 62 60 58 56 54
22 20 23 22 17 22 21 21 24 24 16 34 33 38 42 44 41 42 38 37 35 37 42 41 42 42 38 35 34 41 59 68 67 64 62 61 60 57
23 23 25 25 19 21 22 21 20 26 25 29 37 36 37 38 41 39 40 37 36 38 38 41 48 41 38 38 39 38 47 69 67 66 64 63 61 59
24 25 26 20 22 26 20 19 21 24 27 30 34 33 34 35 38 39 35 38 35 36 40 40 46 44 39 37 39 42 42 65 69 69 66 65 63 62
24 23 23 25 27 26 21 18 23 27 28 29 31 29 30 34 31 36 39 34 37 36 40 40 38 36 37 36 38 42 40 50 59 67 67 66 64 64
23 22 24 25 24 26 19 25 26 28 29 27 27 28 27 28 31 36 34 37 38 38 32 35 34 42 42 34 33 40 45 52 53 58 72 64 64 67
22 23 26 24 26 23 25 28 29 31 29 27 28 26 30 32 34 34 36 29 15 32 30 45 33 41 39 38 35 36 43 53 55 69 61 64 71 72
24 27 28 27 28 28 29 30 34 30 28 31 29 31 34 35 36 37 33 32 30 38 37 38 35 39 40 38 34 39 41 47 57 58 66 70 76 75
25 26 29 28 26 32 32 35 29 33 29 27 32 34 35 37 34 35 37 38 34 32 33 16 34 36 39 39 39 38 44 50 55 56 58 63 70 71
23 26 26 26 29 30 32 29 28 28 28 29 30 33 33 33 33 35 30 27 16 28 34 30 16 30 34 36 34 36 43 47 50 50 50 59 67 68
23 26 24 28 30 29 31 26 27 27 33 33 33 33 33 34 32 32 32 25 23 13 13 21 31 18 6 19 32 33 39 44 48 47 49 55 60 61
24 25 26 28 29 29 28 26 29 32 31 30 30 30 31 31 31 34 34 31 28 27 36 30 24 23 13 12 10 31 35 38 44 48 48 48 53 58
23 23 27 27 28 28 27 29 29 30 28 29 27 29 30 32 36 37 38 38 36 36 39 35 22 22 19 13 8 8 28 35 39 41 43 45 48 48
21 25 24 25 25 25 26 28 28 27 28 27 28 28 32 34 37 35 37 36 35 32 28 31 28 29 25 16 8 6 7 20 33 36 37 39 38 36
22 25 23 22 23 24 24 26 27 27 28 28 29 31 33 34 34 34 34 34 32 31 32 29 29 29 23 22 23 16 14 6 29 30 32 32 32 33
23 24 22 22 24 25 25 26 28 29 29 31 30 32 32 33 34 36 32 34 27 26 30 33 35 34 21 16 6 15 16 9 25 32 26 21 22 27
23 20 20 21 22 24 24 26 27 29 30 32 29 32 32 32 33 35 32 30 27 28 28 31 32 28 14 3 26 13 3 14 24 29 27 23 17 19
21 22 20 21 22 23 23 25 27 29 29 30 31 31 32 32 33 32 32 30 29 30 31 29 26 20 8 7 13 31 11 4 26 22 23 14 14 22
21 21 21 22 23 23 23 25 27 29 27 29 31 31 32 31 31 31 33 31 32 31 29 29 25 26 9 6 3 14 20 8 13 23 30 32 28 24
19 21 22 24 23 24 23 26 27 28 25 30 30 31 31 31 30 30 31 31 32 27 20 25 31 34 23 16 4 7 17 14 9 26 26 25 10 7
18 20 22 25 23 25 24 26 28 26 26 29 31 32 31 30 28 30 30 27 27 26 26 31 32 29 20 9 5 3 5 19 30 30 24 13 7 4
19 17 20 25 26 23 24 27 29 21 27 28 31 32 34 31 31 30 30 30 28 28 29 29 31 27 21 14 8 4 8 12 14 23 31 23 24 24
Wind_Direction
344 333 325 319 317 313 311 311 306 312 310 315 319 318 319 320 318 317 315 312 308 306 302 303 306 300 284 261 275 219 210 213 212 210 207 207 206 206
337 329 323 318 317 317 313 306 306 300 299 311 314 316 318 316 316 315 313 312 309 305 304 303 302 300 293 272 265 273 210 211 214 212 209 209 207 207
335 327 324 318 313 323 317 318 311 307 304 309 314 315 314 314 315 315 313 311 309 305 301 299 300 301 296 273 255 263 226 209 213 212 211 211 210 209
339 335 328 319 315 323 316 315 319 324 315 311 313 314 312 314 311 313 311 308 308 307 305 303 300 300 290 280 255 253 238 216 210 214 212 212 212 210
347 341 329 338 330 321 315 320 324 322 316 307 309 312 310 313 314 310 308 310 308 308 306 303 298 301 283 282 257 245 232 220 209 215 212 212 212 213
351 346 340 338 329 327 327 331 328 322 319 311 306 312 314 315 312 314 313 313 310 310 306 302 305 310 301 285 258 240 244 225 224 223 213 214 215 216
349 343 340 334 330 331 330 331 327 322 317 311 308 313 314 318 316 312 305 309 308 309 307 302 304 306 298 296 265 245 244 231 226 230 218 215 219 220
345 342 340 337 335 330 331 324 321 318 312 309 309 307 310 314 311 309 304 306 305 312 313 300 302 296 291 285 263 254 236 223 222 212 229 229 225 225
345 342 340 336 333 335 327 321 319 319 311 304 299 309 308 312 307 308 305 301 298 300 303 293 298 289 289 285 272 249 240 229 222 228 229 229 227 228
343 342 339 336 338 331 325 314 324 323 319 317 313 311 310 311 309 307 305 302 298 295 294 285 297 285 286 282 270 258 239 231 224 224 225 229 229 229
343 341 340 338 333 330 331 333 327 324 325 324 319 316 314 316 315 313 310 309 304 302 302 286 292 309 291 271 267 252 239 234 230 226 226 230 228 230
343 339 340 338 333 337 339 338 325 328 334 329 326 323 322 320 319 314 308 303 303 305 306 314 305 313 308 253 248 239 230 234 232 227 229 229 229 224
338 334 335 335 338 341 340 336 334 337 332 327 324 324 325 325 321 318 314 304 300 291 295 298 292 297 273 286 260 218 223 219 220 225 225 227 229 226
333 331 333 338 342 343 342 340 341 339 333 330 330 329 329 327 324 320 317 315 309 297 301 298 282 289 283 287 276 225 207 209 209 209 215 221 227 230
337 338 340 342 345 343 345 345 344 341 337 334 332 331 329 326 324 324 323 322 318 315 311 312 300 296 276 258 264 254 163 201 206 198 200 205 206 211
350 352 348 346 346 344 346 348 346 341 337 335 331 331 331 332 330 330 326 326 326 323 326 327 325 316 288 266 251 245 204 193 188 186 183 190 199 204
352 354 348 349 349 348 348 349 347 343 341 339 336 337 335 334 332 333 331 331 332 326 328 330 337 333 289 334 243 213 180 183 164 161 156 140 173 188
358 350 346 345 348 343 345 346 345 342 341 338 339 338 335 334 332 331 333 334 330 330 328 330 335 338 332 274 32 11 151 147 141 149 147 131 116 147
360 352 347 344 343 342 342 345 339 336 338 341 340 337 335 334 334 331 333 333 333 332 331 329 334 334 326 7 337 23 14 144 123 114 121 120 125 133
1 354 348 344 340 340 338 342 337 334 339 341 338 338 336 334 333 333 333 330 333 333 329 331 332 332 342 347 330 352 27 19 129 118 103 107 105 120
355 353 351 345 339 338 336 340 335 332 340 339 337 337 335 335 330 330 330 328 328 328 327 327 326 336 351 14 33 14 22 62 108 113 122 111 115 123
348 348 349 349 337 335 339 339 334 334 345 339 337 335 335 332 328 326 324 327 329 326 322 326 336 347 1 4 3 345 352 53 73 80 85 103 142 132
346 342 344 346 341 335 339 338 334 339 343 338 336 333 333 330 329 328 323 330 330 331 336 337 340 349 350 355 339 30 53 51 50 55 62 74 89 100